Location: *
(34.0486°S, 61.7880°E)
Time: 21:44:02
(UTC+00:00)

ALOS - Pass Details

Date: 01 April 2020
Orbit: 683 x 686 km, 97.8° (Epoch: 02 June)

Event Time Altitude Azimuth Distance (km) Brightness Sun altitude
Rises 23:21:03 0° 43° (NE) 3,044 5.9 -34.5°
Reaches altitude 10° 23:23:36 10° 56° (ENE) 2,137 5.2 -34.0°
Maximum altitude 23:27:23 25° 110° (ESE) 1,396 4.4 -33.3°
Drops below altitude 10° 23:31:11 10° 164° (SSE) 2,158 5.2 -32.5°
Sets 23:33:46 0° 177° (S) 3,082 5.9 -32.0°
